Location: Castelbiague
(43.0361°N, 0.9246°E)
Time: 15:44:59
(UTC+00:00)

Cosmos 1844 Rocket - Pass Details

Date: 17 June 2021
Orbit: 823 x 846 km, 71.0° (Epoch: 31 July)

Event Time Altitude Azimuth Distance (km) Brightness Sun altitude
Rises 20:17:54 0° 343° (NNW) 3,410 7.0 -6.6°
Reaches altitude 10° 20:20:43 10° 355° (N) 2,474 5.9 -7.0°
Maximum altitude 20:25:32 28° 53° (NE) 1,555 4.0 -7.6°
Drops below altitude 10° 20:30:19 10° 111° (ESE) 2,466 4.5 -8.3°
Enters shadow 20:30:45 - 113° (ESE) 2,601 4.6 -8.3°
